Trenton, NJ

9:45 AM EST on December 08, 2016 (GMT -0500)
Trenton Mercer

Weather History for KTTN - June, 2013

Change the Weather History Date:

Monday, June 3, 2013

  Actual Average Record
Temperature  
Mean Temperature 72 °F 67 °F  
Max Temperature 80 °F 77 °F 97 °F (1895)
Min Temperature 64 °F 56 °F 45 °F (1929)
Degree Days  
Heating Degree Days 0 2  
Month to date heating degree days 0 6  
Since 1 June heating degree days 0 6  
Since 1 July heating degree days 4949 5142  
Cooling Degree Days 7 4  
Month to date cooling degree days 35 11  
Year to date cooling degree days 125 68  
Since 1 June cooling degree days 35 11  
Growing Degree Days 24 (Base 50)    
Moisture  
Dew Point 66 °F    
Average Humidity 78    
Maximum Humidity 97    
Minimum Humidity 58    
Precipitation  
Precipitation 0.61 in 0.17 in 1.80 in (1995)
Month to date precipitation 0.61 0.48  
Year to date precipitation 13.43 18.00  
Sea Level Pressure  
Sea Level Pressure 29.83 in    
Wind  
Wind Speed 4 mph (WNW)    
Max Wind Speed 14 mph    
Max Gust Speed 22 mph    
Visibility 7 miles    
Events Rain    
T = Trace of Precipitation, MM = Missing Value Source: NWS Daily Summary

Daily Weather History Graph

Daily Weather History Graph

Search for Another Location

Airport or City:

Trip Planner

Search our weather history database for the weather conditions in past years. The results will help you decide how hot, cold, wet, or windy it might be!

Date:

Astronomy

Jun. 03, 2013 Rise Set
Actual Time 5:30 AM EDT 8:24 PM EDT
Civil Twilight 4:58 AM EDT 8:57 PM EDT
Nautical Twilight 4:17 AM EDT 9:38 PM EDT
Astronomical Twilight 3:30 AM EDT 10:25 PM EDT
Moon 2:27 AM EDT (6/3) 3:52 PM EDT (6/3)
Length of Visible Light 15h 58m
Length of Day
14h 53m
Waning Crescent, 22% of the Moon is Illuminated
Jun 3
Waning Crescent
Jun 8
New
Jun 16
First Quarter
Jun 23
Full
Jun 30
Last Quarter

Hourly Weather History & Observations

Time (EDT) Temp. Heat Index Dew Point Humidity Pressure Visibility Wind Dir Wind Speed Gust Speed Precip Events Conditions
12:53 AM 73.0 °F - 64.0 °F 73% 29.83 in 10.0 mi WSW 6.9 mph - 0.00 in Rain Light Rain
1:53 AM 70.0 °F - 66.9 °F 90% 29.83 in 8.0 mi WSW 6.9 mph - 0.02 in Rain Light Rain
2:53 AM 70.0 °F - 68.0 °F 93% 29.82 in 9.0 mi SW 6.9 mph - 0.03 in Rain Light Rain
3:53 AM 69.1 °F - 66.9 °F 93% 29.80 in 10.0 mi Calm Calm - 0.01 in Rain Light Rain
4:53 AM 69.1 °F - 68.0 °F 96% 29.81 in 6.0 mi WSW 4.6 mph - 0.03 in Rain Light Rain
5:07 AM 69.8 °F - 68.0 °F 94% 29.83 in 9.0 mi SW 5.8 mph - 0.00 in Rain Light Rain
5:13 AM 69.8 °F - 68.0 °F 94% 29.83 in 9.0 mi SW 6.9 mph - 0.00 in   Overcast
5:53 AM 69.1 °F - 66.9 °F 93% 29.81 in 7.0 mi SW 4.6 mph - 0.00 in   Overcast
6:53 AM 69.1 °F - 66.9 °F 93% 29.81 in 7.0 mi SW 3.5 mph - 0.00 in Rain Light Rain
7:07 AM 69.8 °F - 66.2 °F 88% 29.84 in 8.0 mi SW 4.6 mph - 0.00 in Rain Light Rain
7:40 AM 69.8 °F - 68.0 °F 94% 29.85 in 1.8 mi WSW 6.9 mph - 0.05 in Rain Heavy Rain
7:53 AM 69.1 °F - 68.0 °F 96% 29.83 in 0.8 mi WSW 4.6 mph - 0.20 in Rain Heavy Rain
8:00 AM 69.8 °F - 66.2 °F 88% 29.85 in 1.0 mi West 4.6 mph - 0.04 in Rain Heavy Rain
8:13 AM 69.8 °F - 66.2 °F 88% 29.85 in 2.0 mi WSW 5.8 mph - 0.09 in Rain Rain
8:22 AM 69.8 °F - 66.2 °F 88% 29.85 in 4.0 mi West 3.5 mph - 0.10 in Rain Light Rain
8:27 AM 69.8 °F - 66.2 °F 88% 29.86 in 2.5 mi WSW 4.6 mph - 0.12 in Rain Rain
8:33 AM 69.8 °F - 66.2 °F 88% 29.86 in 3.0 mi West 4.6 mph - 0.12 in Rain Light Rain
8:50 AM 69.8 °F - 66.2 °F 88% 29.84 in 2.5 mi North 5.8 mph - 0.15 in Rain Rain
8:53 AM 70.0 °F - 66.9 °F 90% 29.81 in 3.0 mi North 4.6 mph - 0.15 in Rain Light Rain
9:45 AM 71.6 °F - 66.2 °F 83% 29.86 in 10.0 mi WNW 6.9 mph - 0.00 in   Mostly Cloudy
9:53 AM 71.1 °F - 66.9 °F 87% 29.83 in 10.0 mi West 5.8 mph - 0.00 in Rain Light Rain
10:38 AM 71.6 °F - 66.2 °F 83% 29.85 in 10.0 mi Variable 3.5 mph - 0.00 in   Overcast
10:53 AM 73.0 °F - 68.0 °F 84% 29.83 in 10.0 mi Variable 3.5 mph - 0.00 in   Mostly Cloudy
11:31 AM 75.2 °F - 66.2 °F 73% 29.85 in 10.0 mi North 4.6 mph - N/A   Mostly Cloudy
11:53 AM 75.0 °F - 66.9 °F 76% 29.83 in 10.0 mi Variable 4.6 mph - N/A   Partly Cloudy
12:04 PM 75.2 °F - 66.2 °F 73% 29.84 in 10.0 mi North 5.8 mph - N/A   Mostly Cloudy
12:50 PM 77.0 °F - 66.2 °F 69% 29.83 in 10.0 mi NNE 6.9 mph - N/A   Scattered Clouds
12:53 PM 77.0 °F - 66.0 °F 69% 29.81 in 10.0 mi Variable 6.9 mph - N/A   Scattered Clouds
1:53 PM 79.0 °F - 64.9 °F 62% 29.80 in 10.0 mi Variable 4.6 mph - 0.01 in   Mostly Cloudy
2:53 PM 80.1 °F 81.7 °F 64.0 °F 58% 29.80 in 10.0 mi Calm Calm - N/A   Partly Cloudy
3:53 PM 75.0 °F - 66.9 °F 76% 29.80 in 10.0 mi SW 8.1 mph - 0.00 in Rain Light Rain
4:53 PM 75.0 °F - 66.9 °F 76% 29.79 in 9.0 mi WNW 6.9 mph - 0.00 in   Mostly Cloudy
5:08 PM 69.8 °F - 66.2 °F 88% 29.82 in 2.5 mi North 10.4 mph - 0.03 in Rain Rain
5:12 PM 69.8 °F - 66.2 °F 88% 29.82 in 1.8 mi North 11.5 mph - 0.08 in Rain Heavy Rain
5:25 PM 69.8 °F - 66.2 °F 88% 29.82 in 3.0 mi East 8.1 mph - 0.16 in Rain Light Rain
5:53 PM 70.0 °F - 66.0 °F 87% 29.80 in 10.0 mi East 3.5 mph - 0.16 in   Overcast
6:53 PM 72.0 °F - 66.0 °F 81% 29.80 in 10.0 mi Calm Calm - N/A   Mostly Cloudy
7:53 PM 72.0 °F - 68.0 °F 87% 29.81 in 10.0 mi Calm Calm - N/A   Mostly Cloudy
8:53 PM 69.1 °F - 66.9 °F 93% 29.82 in 8.0 mi Calm Calm - N/A   Mostly Cloudy
9:53 PM 69.1 °F - 66.9 °F 93% 29.83 in 7.0 mi Calm Calm - N/A   Overcast
10:19 PM 69.8 °F - 66.2 °F 88% 29.87 in 8.0 mi North 3.5 mph - N/A   Overcast
10:29 PM 69.8 °F - 66.2 °F 88% 29.87 in 9.0 mi North 5.8 mph - N/A   Overcast
10:53 PM 69.1 °F - 63.0 °F 81% 29.85 in 10.0 mi NE 4.6 mph - N/A   Scattered Clouds
11:53 PM 66.0 °F - 61.0 °F 84% 29.86 in 10.0 mi North 3.5 mph - N/A   Clear